sat.trackr.live / text

‹ back to catalog

2023-091H

NORAD 57173 · 2023-091H

PAYLOAD ACTIVE UNKNOWN

§ Identity

Operator
Country
CIS
Launch date
2023-06-27
Launch site
VOSTO
Launch vehicle
Mass (kg)
RCS (m²)

External: N2YO · Heavens-Above · Gunter

§ Orbital elements

Epoch: 2026-05-25T04:51:34.733376Z

Period
94.24 min
Inclination
97.5061°
Eccentricity
0.0010027
Mean motion
15.28055238 rev/d
Perigee alt
474.7 km
Apogee alt
488.5 km
Semi-major
6,859.8 km
B*
4.1228e-4
RAAN
208.2165°
Arg perigee
185.5353°
Mean anomaly
174.5777°
Rev number
16,079

§ Raw data

2023-091H1 57173U 23091H   26145.20248534  .00011226  00000+0  41228-3 0  99952 57173  97.5061 208.2165 0010027 185.5353 174.5777 15.28055238160797

JSON: /api/v1/satellites/57173 · /tle

For live sub-satellite position, see the globe view (requires WebGL).

§ Visibility from observer

Set your observer location to see the next 7 days of passes ≥ 10°. The values pass through the URL so the page stays shareable.

No JS? Fill the form by hand. The geolocation button needs JavaScript.

§ Radio — SatNOGS DB

ModeDescriptionDownlinkUplink
FSK Mode U - FSK1k2 AX.25 TLM 437.400 MHz
CW SamSat-ION Beacon 437.402 MHz

2 transmitters · refreshed weekly from db.satnogs.org